Waarnemingen

Advertentie
Mijn weer
Kempten, Duitsland (10946): temperatuur & dauwpunt: 16.01.2017 13:00:00 - 22.01.2017 13:00:00 (CET)Kempten, Duitsland (10946): temperatuur 5cm & temperatuur -5cm: 16.01.2017 13:00:00 - 22.01.2017 13:00:00 (CET)Kempten, Duitsland (10946): temperatuur -20cm & temperatuur -100cm: 16.01.2017 13:00:00 - 22.01.2017 13:00:00 (CET)Kempten, Duitsland (10946): windsnelheid & windstoten: 16.01.2017 13:00:00 - 22.01.2017 13:00:00 (CET)Kempten, Duitsland (10946): windrichting: 16.01.2017 13:00:00 - 22.01.2017 13:00:00 (CET)Kempten, Duitsland (10946): luchtdruk: 16.01.2017 13:00:00 - 22.01.2017 13:00:00 (CET)Kempten, Duitsland (10946): zicht: 16.01.2017 13:00:00 - 22.01.2017 13:00:00 (CET)Kempten, Duitsland (10946): Zonneschijnduur: 16.01.2017 13:00:00 - 22.01.2017 13:00:00 (CET)Kempten, Duitsland (10946): neerslag: 16.01.2017 13:00:00 - 22.01.2017 13:00:00 (CET)
Datum & Tijd tt [°C] td [°C] tt 5cm [°C] tt -5cm [°C] tt -20cm [°C] tt -100cm [°C] ff [km/u] ff [kn] fx [km/u] fx [kn] dd ppp [hPa] vv [km] sd [min] rr [mm]
22.01.2017 13:00:00 -1,0 -8,8 -3,0 -0,1 0,8 4,2 3 2 8 4 Z 1025,1 23 60 0,0
22.01.2017 12:00:00 -3,8 -9,7 -3,8 -0,1 0,8 4,2 5 3 7 4 ZO 1026,8 14 60 0,0
22.01.2017 11:00:00 -7,8 -11,5 -4,4 -0,1 0,8 4,2 5 3 9 5 Z 1028,8 9 60 0,0
22.01.2017 10:00:00 -11,0 -13,9 -4,7 -0,1 0,8 4,2 5 3 9 5 ZO 1030,0 12 60 0,0
22.01.2017 09:00:00 -16,1 -18,2 -4,7 -0,1 0,8 4,2 5 3 9 5 ZO 1031,9 10 20 0,0
22.01.2017 08:00:00 -17,4 -19,1 -4,7 -0,1 0,8 4,2 4 2 9 5 ZZO 1032,3 11 0 0,0
22.01.2017 07:00:00 -17,1 -18,8 -4,6 -0,1 0,8 4,2 8 4 10 5 OZO 1032,2 11 0 0,0
22.01.2017 06:00:00 -16,6 -18,4 -4,5 -0,1 0,8 4,2 6 4 9 5 OZO 1032,3 10 0 0,0
22.01.2017 05:00:00 -16,5 -18,1 -4,3 -0,1 0,8 4,2 6 4 8 4 OZO 1032,4 9 0 0,0
22.01.2017 04:00:00 -15,9 -17,7 -4,2 -0,1 0,8 4,2 0 0 10 5 N 1032,6 9 0 0,0
22.01.2017 03:00:00 -15,5 -17,1 -4,0 -0,1 0,8 4,2 5 3 10 6 ZO 1032,8 8 0 0,0
22.01.2017 02:00:00 -16,0 -17,6 -3,8 -0,1 0,8 4,2 5 3 10 5 ZZO 1033,2 7 0 0,0
22.01.2017 01:00:00 -14,9 -16,4 -3,7 -0,1 0,8 4,2 5 3 9 5 ZZO 1033,0 6 0 0,0
22.01.2017 00:00:00 -14,4 -15,7 -3,5 -0,1 0,8 4,2 2 1 11 6 ONO 1033,5 6 0 0,0
21.01.2017 23:00:00 -13,3 -14,6 -3,3 -0,1 0,8 4,2 8 4 10 5 OZO 1032,9 4,7 0 0,0
21.01.2017 22:00:00 -12,8 -14,1 -3,1 -0,1 0,8 4,2 8 5 10 6 OZO 1032,8 4,4 0 0,0
21.01.2017 21:00:00 -12,9 -14,4 -3,0 -0,1 0,8 4,2 6 3 9 5 OZO 1033,0 3,8 0 0,0
21.01.2017 20:00:00 -10,9 -12,2 -2,6 -0,1 0,8 4,2 5 3 9 5 O 1032,4 2,8 0 0,0
21.01.2017 19:00:00 -10,2 -11,8 -2,2 -0,1 0,8 4,2 5 3 5 3 O 1032,2 3,5 0 0,0
21.01.2017 18:00:00 -7,9 -10,1 -1,8 -0,1 0,8 4,2 0 0 6 3 N 1031,2 3,7 0 0,0
21.01.2017 17:00:00 -4,1 -7,8 -1,6 -0,1 0,8 4,2 5 3 8 4 NNW 1029,7 6 45 0,0
21.01.2017 16:00:00 -2,9 -8,5 -1,5 -0,1 0,8 4,2 6 4 11 6 N 1029,4 7 60 0,0
21.01.2017 15:00:00 -2,1 -8,7 -1,8 -0,1 0,7 4,2 8 4 10 5 NNW 1029,0 6 60 0,0
21.01.2017 14:00:00 0,7 -7,7 -2,3 -0,1 0,7 4,2 1 1 9 5 ZZO 1028,6 13 60 0,0
21.01.2017 13:00:00 -4,4 -9,3 -3,0 -0,1 0,7 4,2 8 5 11 6 Z 1030,8 10 60 0,0
21.01.2017 12:00:00 -5,0 -11,4 -3,6 -0,1 0,7 4,2 3 1 8 4 Z 1031,9 9 60 0,0
21.01.2017 11:00:00 -7,8 -13,2 -4,1 -0,1 0,8 4,2 4 2 5 3 OZO 1033,6 6 60 0,0
21.01.2017 10:00:00 -11,6 -15,2 -4,4 -0,1 0,8 4,2 2 1 6 4 W 1035,0 7 60 0,0
21.01.2017 09:00:00 -16,7 -18,9 -4,5 -0,1 0,7 4,2 4 2 8 4 OZO 1036,4 7 19 0,0
21.01.2017 08:00:00 -17,9 -19,7 -4,5 -0,1 0,7 4,2 5 3 9 5 OZO 1036,7 7 0 0,0
21.01.2017 07:00:00 -18,3 -20,2 -4,4 -0,1 0,7 4,2 8 4 9 5 OZO 1036,7 3,7 0 0,0
21.01.2017 06:00:00 -18,1 -20,0 -4,3 -0,1 0,7 4,2 3 2 11 6 ZZO 1036,8 6 0 0,0
21.01.2017 05:00:00 -17,7 -19,6 -4,3 -0,1 0,7 4,2 2 1 9 5 O 1036,5 4,5 0 0,0
21.01.2017 04:00:00 -17,6 -19,5 -4,2 -0,1 0,7 4,2 0 0 6 3 N 1036,7 6 0 0,0
21.01.2017 03:00:00 -17,6 -19,1 -4,1 -0,1 0,7 4,2 4 2 6 4 ZO 1037,1 4,7 0 0,0
21.01.2017 02:00:00 -16,7 -18,4 -3,9 -0,1 0,7 4,2 8 5 9 5 OZO 1036,7 4,3 0 0,0
21.01.2017 01:00:00 -17,3 -19,2 -3,8 -0,1 0,7 4,2 4 2 9 5 ZO 1037,5 4,4 0 0,0
21.01.2017 00:00:00 -16,1 -17,7 -3,6 -0,1 0,7 4,2 4 2 10 5 ZO 1037,3 4,1 0 0,0
20.01.2017 23:00:00 -16,1 -17,9 -3,5 -0,1 0,7 4,2 5 3 7 4 OZO 1037,2 3,7 0 0,0
20.01.2017 22:00:00 -15,6 -17,2 -3,3 -0,1 0,7 4,2 5 3 8 5 O 1037,1 3,4 0 0,0
20.01.2017 21:00:00 -14,6 -16,2 -3,1 -0,1 0,7 4,2 6 3 8 4 OZO 1036,6 2,9 0 0,0
20.01.2017 20:00:00 -13,6 -15,0 -2,8 -0,1 0,7 4,2 5 3 7 4 OZO 1036,2 2,9 0 0,0
20.01.2017 19:00:00 -12,9 -14,4 -2,5 -0,1 0,7 4,2 3 2 4 2 NO 1036,0 2,9 0 0,0
20.01.2017 18:00:00 -11,6 -13,6 -2,2 -0,1 0,7 4,2 4 2 5 3 O 1035,2 3,7 0 0,0
20.01.2017 17:00:00 -8,5 -11,4 -2,0 -0,1 0,7 4,2 3 2 6 3 NO 1034,1 4,3 42 0,0
20.01.2017 16:00:00 -6,6 -11,4 -1,9 -0,1 0,7 4,2 3 2 9 5 OZO 1033,3 7 60 0,0
20.01.2017 15:00:00 -7,2 -11,9 -2,0 -0,1 0,7 4,2 5 3 8 4 ONO 1033,7 6 60 0,0
20.01.2017 14:00:00 -7,7 -12,9 -2,4 -0,1 0,7 4,2 5 3 7 4 OZO 1034,1 4,4 60 0,0
20.01.2017 13:00:00 -10,2 -13,2 -2,8 -0,1 0,7 4,2 5 3 10 6 N 1035,7 3,0 60 0,0
20.01.2017 12:00:00 -10,4 -13,7 -3,3 -0,1 0,7 4,2 5 3 10 5 NO 1036,2 3,5 60 0,0
20.01.2017 11:00:00 -12,4 -15,6 -3,5 -0,1 0,7 4,2 5 3 6 4 ZO 1037,1 4,8 60 0,0
20.01.2017 10:00:00 -12,9 -16,4 -3,6 -0,1 0,7 4,2 1 0 7 4 ZO 1037,1 5 60 0,0
20.01.2017 09:00:00 -17,2 -19,2 -3,5 -0,1 0,7 4,2 5 3 8 5 OZO 1038,5 4,9 15 0,0
20.01.2017 08:00:00 -17,2 -19,2 -3,4 0,0 0,7 4,2 8 4 9 5 OZO 1038,0 4,6 0 0,0
20.01.2017 07:00:00 -16,6 -18,2 -3,2 0,0 0,7 4,2 6 4 8 4 O 1037,5 6 0 0,0
20.01.2017 06:00:00 -15,1 -16,4 -3,0 0,0 0,7 4,2 5 3 10 5 OZO 1036,8 4,8 0 0,0
20.01.2017 05:00:00 -14,5 -15,4 -2,9 0,0 0,7 4,2 5 3 9 5 ZZO 1036,3 3,5 0 0,0
20.01.2017 04:00:00 -12,8 -13,8 -2,8 0,0 0,7 4,2 4 2 6 4 ZO 1036,3 2,7 0 0,0
20.01.2017 03:00:00 -12,5 -13,8 -2,8 0,0 0,7 4,2 4 2 6 4 OZO 1036,0 4,3 0 0,0
20.01.2017 02:00:00 -12,5 -14,0 -2,6 0,0 0,7 4,2 5 3 8 4 OZO 1036,3 5 0 0,0
20.01.2017 01:00:00 -13,0 -14,1 -2,3 0,0 0,7 4,2 4 2 8 5 ZZO 1036,4 5 0 0,0
20.01.2017 00:00:00 -12,3 -13,5 -2,0 0,0 0,7 4,2 5 3 9 5 ZZO 1036,6 4,5 0 0,0
19.01.2017 23:00:00 -11,0 -12,1 -1,8 0,0 0,7 4,2 4 2 8 4 ZZO 1036,4 3,4 0 0,0
19.01.2017 22:00:00 -9,2 -10,5 -1,6 0,0 0,7 4,2 4 2 8 4 O 1035,8 4,4 0 0,0
19.01.2017 21:00:00 -8,2 -10,0 -1,5 0,0 0,7 4,2 5 3 14 7 O 1035,5 4,2 0 0,0
19.01.2017 20:00:00 -7,4 -9,4 -1,3 0,0 0,7 4,2 6 3 16 8 O 1035,1 6 0 0,0
19.01.2017 19:00:00 -7,1 -9,3 -1,3 0,0 0,7 4,2 4 2 18 10 O 1035,0 6 0 0,0
19.01.2017 18:00:00 -7,1 -9,3 -1,1 0,0 0,7 4,2 6 4 16 9 NO 1034,9 6 0 0,0
19.01.2017 17:00:00 -7,0 -9,3 -1,0 0,0 0,7 4,2 5 3 10 6 ONO 1034,4 6 0 0,0
19.01.2017 16:00:00 -6,8 -9,5 -0,9 0,0 0,7 4,2 6 4 14 8 O 1034,3 8 0 0,0
19.01.2017 15:00:00 -6,9 -10,0 -0,9 0,0 0,7 4,2 7 4 15 8 NO 1034,5 7 0 0,0
19.01.2017 14:00:00 -7,2 -10,4 -0,9 0,0 0,7 4,2 6 4 14 8 O 1034,6 7 0 0,0
19.01.2017 13:00:00 -7,4 -10,6 -1,1 0,0 0,7 4,2 6 3 16 9 ONO 1034,9 8 0 0,0
19.01.2017 12:00:00 -7,5 -10,7 -1,3 0,0 0,7 4,2 7 4 13 7 O 1035,0 8 0 0,0
19.01.2017 11:00:00 -8,2 -11,0 -1,4 0,0 0,7 4,2 8 4 13 7 ONO 1035,6 10 0 0,0
19.01.2017 10:00:00 -8,7 -11,1 -1,5 0,0 0,7 4,2 8 4 21 11 ONO 1035,8 9 1 0,0
19.01.2017 09:00:00 -8,5 -10,6 -1,6 0,0 0,7 4,2 10 5 18 10 O 1035,6 8 0 0,0
19.01.2017 08:00:00 -8,4 -10,5 -1,6 0,0 0,7 4,2 11 6 22 12 O 1035,2 8 0 0,0
19.01.2017 07:00:00 -8,4 -10,5 -1,5 0,0 0,7 4,2 10 5 20 11 O 1034,9 8 0 0,0
19.01.2017 06:00:00 -8,1 -10,3 -1,5 0,0 0,7 4,2 10 5 18 10 O 1034,6 7 0 0,0
19.01.2017 05:00:00 -7,9 -9,8 -1,5 0,0 0,7 4,2 6 3 20 11 O 1034,8 7 0 0,0
19.01.2017 04:00:00 -7,8 -10,0 -1,4 0,0 0,7 4,2 7 4 27 14 OZO 1034,8 8 0 0,0
19.01.2017 03:00:00 -7,5 -10,0 -1,3 0,0 0,7 4,2 8 4 23 12 O 1034,7 8 0 0,0
19.01.2017 02:00:00 -7,3 -9,9 -1,3 0,0 0,7 4,2 11 6 26 14 O 1034,4 8 0 0,0
19.01.2017 01:00:00 -7,0 -9,6 -1,3 0,0 0,7 4,2 10 6 33 18 O 1034,2 9 0 0,0
19.01.2017 00:00:00 -6,7 -9,7 -1,2 0,0 0,7 4,2 10 6 29 16 O 1034,3 10 0 0,0
18.01.2017 23:00:00 -6,5 -9,5 -1,2 0,0 0,7 4,2 11 6 34 19 O 1034,2 11 0 0,0
18.01.2017 22:00:00 -6,4 -9,3 -1,1 0,0 0,7 4,2 11 6 29 15 O 1034,2 10 0 0,0
18.01.2017 21:00:00 -6,2 -9,2 -1,1 0,0 0,7 4,2 10 5 30 16 O 1034,4 11 0 0,0
18.01.2017 20:00:00 -6,2 -9,4 -1,0 0,0 0,7 4,2 13 7 32 17 O 1034,5 11 0 0,0
18.01.2017 19:00:00 -6,1 -9,6 -1,0 0,0 0,7 4,2 14 7 32 17 O 1034,2 12 0 0,0
18.01.2017 18:00:00 -6,1 -9,4 -0,9 0,0 0,7 4,2 18 10 45 24 O 1034,2 11 0 0,0
18.01.2017 17:00:00 -6,0 -9,2 -0,9 0,0 0,7 4,2 16 8 39 21 O 1034,2 10 0 0,0
18.01.2017 16:00:00 -6,0 -9,2 -0,8 0,0 0,7 4,2 19 10 37 20 O 1034,2 10 0 0,0
18.01.2017 15:00:00 -6,0 -9,5 -0,8 0,0 0,7 4,2 12 7 37 20 O 1034,2 15 0 0,0
18.01.2017 14:00:00 -6,0 -9,5 -0,8 0,0 0,7 4,2 14 7 41 22 O 1034,0 11 0 0,0
18.01.2017 13:00:00 -6,2 -10,0 -0,9 0,0 0,7 4,2 21 11 38 20 O 1034,1 10 0 0,0
18.01.2017 12:00:00 -6,3 -9,8 -1,0 0,0 0,7 4,2 10 5 36 20 O 1034,4 11 0 0,0
18.01.2017 11:00:00 -6,6 -10,1 -1,1 0,0 0,7 4,2 13 7 42 23 O 1034,6 9 0 0,0
18.01.2017 10:00:00 -6,7 -9,7 -1,2 0,0 0,7 4,2 13 7 35 19 O 1034,2 4,4 0 0,0
18.01.2017 09:00:00 -7,0 -9,9 -1,2 0,0 0,7 4,2 18 10 44 24 O 1034,0 7 0 0,0
18.01.2017 08:00:00 -7,2 -10,1 -1,2 0,0 0,7 4,2 21 11 39 21 O 1033,6 6 0 0,0
18.01.2017 07:00:00 -7,0 -10,0 -1,2 0,0 0,7 4,2 24 13 46 25 O 1033,3 4,2 0 0,0
18.01.2017 06:00:00 -7,2 -10,0 -1,2 0,0 0,7 4,2 16 8 41 22 O 1033,3 9 0 0,0
18.01.2017 05:00:00 -7,2 -10,0 -1,1 0,0 0,7 4,2 15 8 41 22 O 1033,4 9 0 0,0
18.01.2017 04:00:00 -7,2 -10,0 -1,1 0,0 0,7 4,2 17 9 45 25 O 1033,4 13 0 0,0
18.01.2017 03:00:00 -7,2 -10,0 -1,0 0,0 0,7 4,2 19 10 46 25 O 1033,7 10 0 0,0
18.01.2017 02:00:00 -7,0 -9,8 -1,0 0,0 0,7 4,2 21 11 37 20 O 1033,3 8 0 0,0
18.01.2017 01:00:00 -6,8 -9,8 -0,9 0,0 0,7 4,2 19 10 36 19 O 1033,4 9 0 0,0
18.01.2017 00:00:00 -6,8 -9,7 -0,9 0,0 0,7 4,2 14 8 36 19 O 1033,5 12 0 0,0
17.01.2017 23:00:00 -6,6 -9,5 -0,8 0,0 0,6 4,3 13 7 30 16 ONO 1033,2 16 0 0,0
17.01.2017 22:00:00 -6,4 -9,7 -0,8 0,0 0,6 4,3 11 6 35 19 ONO 1033,0 17 0 0,0
17.01.2017 21:00:00 -6,2 -9,5 -0,7 0,0 0,6 4,3 14 7 29 15 O 1032,9 16 0 0,0
17.01.2017 20:00:00 -6,3 -9,1 -0,6 0,0 0,6 4,3 10 6 31 17 ONO 1032,7 14 0 0,0
17.01.2017 19:00:00 -6,2 -8,8 -0,4 0,0 0,6 4,3 11 6 23 13 ONO 1032,4 12 0 0,0
17.01.2017 18:00:00 -6,2 -8,5 -0,3 0,0 0,6 4,3 10 6 31 17 NO 1031,9 10 0 0,0
17.01.2017 17:00:00 -5,8 -8,7 -0,3 0,0 0,6 4,3 10 6 29 16 O 1031,6 8 1 0,0
17.01.2017 16:00:00 -5,6 -9,2 -0,2 0,0 0,6 4,3 15 8 29 16 O 1031,5 14 0 0,0
17.01.2017 15:00:00 -5,6 -8,5 -0,3 0,0 0,6 4,3 12 7 26 14 ONO 1031,0 7 15 0,0
17.01.2017 14:00:00 -5,7 -8,8 -0,4 0,0 0,6 4,3 10 5 26 14 ONO 1031,0 9 34 0,0
17.01.2017 13:00:00 -5,9 -9,5 -0,5 0,0 0,6 4,3 12 6 21 12 NO 1031,4 12 46 0,0
17.01.2017 12:00:00 -7,0 -10,3 -0,7 0,0 0,6 4,3 10 5 21 11 NO 1032,0 7 47 0,0
17.01.2017 11:00:00 -6,7 -10,3 -0,8 0,0 0,6 4,3 8 4 24 13 NNO 1032,0 7 60 0,0
17.01.2017 10:00:00 -7,1 -9,8 -0,9 0,0 0,6 4,3 9 5 23 12 NO 1031,7 4,2 5 0,0
17.01.2017 09:00:00 -7,5 -9,3 -1,0 0,0 0,6 4,3 9 5 26 14 NNO 1031,5 5 0 0,0
17.01.2017 08:00:00 -7,2 -8,8 -1,0 0,0 0,6 4,3 8 4 24 13 NNO 1030,9 5 0 0,0
17.01.2017 07:00:00 -6,6 -8,2 -1,0 0,0 0,6 4,3 10 6 24 13 NO 1030,0 5 0 0,0
17.01.2017 06:00:00 -6,4 -7,8 -1,0 0,0 0,6 4,3 10 5 26 14 NO 1029,2 10 0 0,0
17.01.2017 05:00:00 -6,1 -7,6 -1,0 0,0 0,6 4,3 10 5 28 15 NNO 1028,7 6 0 0,3
17.01.2017 04:00:00 -5,5 -7,0 -1,0 0,0 0,6 4,3 9 5 29 16 NNO 1028,1 2,5 0 0,0
17.01.2017 03:00:00 -5,4 -7,1 -1,0 0,0 0,6 4,3 11 6 21 11 NO 1027,9 7 0 0,0
17.01.2017 02:00:00 -5,4 -7,0 -1,0 0,0 0,6 4,3 9 5 16 9 NO 1027,6 2,6 0 0,1
17.01.2017 01:00:00 -6,1 -7,4 -0,9 0,0 0,6 4,3 5 3 10 6 NO 1027,7 3,9 0 0,0
17.01.2017 00:00:00 -6,1 -7,8 -0,9 0,0 0,6 4,3 6 4 19 11 NO 1027,6 10 0 0,0
16.01.2017 23:00:00 -5,7 -7,3 -0,9 0,0 0,6 4,3 7 4 18 10 NO 1027,4 7 0 0,1
16.01.2017 22:00:00 -5,7 -7,3 -0,9 0,0 0,6 4,3 8 4 15 8 NNO 1027,2 6 0 0,1
16.01.2017 21:00:00 -5,7 -7,3 -0,8 0,0 0,6 4,3 5 3 11 6 N 1026,6 2,8 0 0,0
16.01.2017 20:00:00 -5,5 -7,2 -0,8 0,0 0,6 4,3 6 3 16 8 N 1026,4 7 0 0,0
16.01.2017 19:00:00 -5,7 -7,0 -0,8 0,0 0,6 4,3 7 4 14 8 N 1026,1 2,8 0 0,1
16.01.2017 18:00:00 -5,6 -6,8 -0,8 0,0 0,6 4,3 9 5 18 10 NNW 1025,5 1,0 0 0,7
16.01.2017 17:00:00 -5,2 -6,4 -0,7 0,0 0,6 4,3 7 4 11 6 NNW 1025,0 0,6 0 0,4
16.01.2017 16:00:00 -4,4 -7,6 -0,7 0,0 0,6 4,3 4 2 8 5 NO 1024,4 13 0 0,0
16.01.2017 15:00:00 -4,4 -8,7 -0,7 0,0 0,6 4,3 5 3 11 6 ONO 1024,0 16 1 0,0
16.01.2017 14:00:00 -3,4 -8,7 -0,7 0,0 0,6 4,3 6 3 9 5 OZO 1023,4 70 43 0,0
16.01.2017 13:00:00 -5,0 -8,5 -0,9 0,0 0,6 4,3 3 2 8 5 NO 1024,1 24 6 0,0

tt = temperatuur
td = dauwpunt
tt 5cm = temperatuur 5cm
tt -5cm = temperatuur -5cm
tt -20cm = temperatuur -20cm
tt -100cm = temperatuur -100cm
ff = windsnelheid
fx = windstoten
dd = windrichting
ppp = luchtdruk
vv = zicht
sd = Zonneschijnduur
rr = neerslag

Weerstations in de omgeving